Theta_e
320 321 321 321 321 322 322 323 323 323 323 323 323 323 323 323 323 323 323 323 323 322 322 322 322 322 322 323 323 324 324 325 325 325 325 325 325 326 326 326 326 326
316 318 319 319 320 320 320 321 321 322 322 322 322 322 322 322 321 321 320 321 320 320 320 320 320 320 321 321 321 321 322 322 322 322 323 323 323 324 324 324 324 324
312 313 313 314 315 316 316 317 318 318 318 319 319 319 319 319 318 318 318 318 318 318 318 318 318 318 318 318 318 318 319 319 319 319 320 320 321 322 322 322 322 323
309 310 310 311 311 312 313 314 315 315 316 316 316 316 316 316 316 315 316 315 315 315 315 315 315 315 315 316 316 316 316 317 317 317 318 318 319 319 319 320 321 321
307 308 308 309 309 310 311 312 313 313 314 314 314 314 314 314 314 313 313 313 313 312 312 313 313 313 314 314 314 315 315 315 315 315 316 316 317 317 317 318 319 319
307 307 308 307 308 308 309 310 311 312 313 313 313 313 313 313 313 312 312 311 311 311 312 312 312 312 313 313 314 314 314 314 314 314 315 315 315 315 315 316 317 317
307 307 308 308 307 307 308 308 309 310 311 311 312 313 312 312 312 311 311 310 311 311 311 311 311 312 312 312 312 312 312 313 313 313 314 314 314 314 314 315 315 315
307 307 307 307 307 307 307 308 308 309 310 311 311 312 312 311 311 311 311 310 310 311 311 311 311 311 311 311 311 311 311 311 312 312 313 313 313 314 314 314 314 313
306 306 306 306 307 307 307 308 308 309 310 310 311 311 311 311 311 310 310 310 310 311 311 311 312 311 312 311 311 311 310 310 311 311 312 313 313 313 313 313 312 312
306 305 306 307 308 309 309 308 309 308 309 309 310 310 310 310 310 309 309 309 309 309 310 311 311 311 311 311 311 310 310 310 310 311 312 312 312 312 312 312 312 312
307 307 308 308 309 310 310 310 309 309 309 309 309 310 310 309 309 309 308 308 308 308 308 308 309 309 309 309 309 310 310 310 310 311 311 312 312 312 312 312 312 312
308 309 309 310 310 310 310 310 310 310 309 310 310 310 310 309 309 309 308 308 308 307 307 306 306 306 306 307 308 309 309 310 310 311 311 312 312 312 312 312 312 312
307 308 308 309 309 309 310 309 309 309 309 310 310 310 310 309 309 308 308 307 307 306 306 306 305 305 305 306 307 307 308 309 309 310 310 310 310 311 311 311 311 311
305 306 306 307 308 308 308 308 308 308 308 308 308 308 308 308 308 307 307 306 306 306 305 305 305 305 305 305 306 307 307 308 309 309 309 310 310 310 310 310 310 310
303 303 304 305 306 306 307 307 307 307 307 307 306 306 306 306 306 306 306 305 305 305 305 305 305 305 305 305 305 306 307 307 308 309 309 309 309 309 309 310 310 310
302 302 302 303 304 305 305 306 306 306 306 306 305 305 305 305 305 304 304 304 304 304 304 304 304 305 305 305 306 306 306 307 308 308 309 309 309 309 309 309 309 309
300 301 301 302 302 303 304 304 305 305 304 304 304 304 304 304 304 303 303 303 304 304 304 304 304 305 305 306 306 307 307 307 308 308 309 309 309 309 309 309 309 309
299 300 300 300 301 301 302 302 303 303 303 303 303 303 303 303 303 303 303 303 303 303 303 303 304 304 305 306 306 307 307 308 308 308 308 309 309 308 308 308 308 308
299 299 299 300 300 300 300 301 301 302 302 303 303 303 303 303 303 303 303 303 303 303 303 303 303 304 304 305 306 307 307 307 308 308 308 308 308 308 308 308 308 308
297 298 299 299 299 299 299 299 300 300 301 301 301 302 302 302 302 302 302 303 302 303 303 303 303 303 303 304 305 306 306 307 307 308 308 308 308 308 308 308 308 308
296 297 297 298 298 299 299 299 299 299 300 300 300 301 301 301 301 301 302 302 302 302 302 303 303 303 303 304 304 304 305 306 306 307 307 307 307 307 307 307 307 307
295 296 296 296 297 297 298 298 298 298 299 299 299 300 300 300 300 301 301 301 301 302 302 302 302 303 303 303 304 304 304 305 305 305 306 306 306 306 306 306 306 306
293 294 295 295 295 296 297 297 297 298 298 298 298 299 299 299 299 300 300 301 301 301 301 302 302 302 303 303 303 304 304 304 305 305 305 305 305 306 306 306 306 306
291 292 292 293 293 294 295 296 296 296 297 297 297 298 298 298 298 299 300 300 300 300 300 301 301 302 302 302 303 303 303 303 304 304 304 305 305 305 305 305 305 305
289 290 290 291 291 291 292 293 293 294 294 294 294 295 296 297 297 298 299 299 299 299 298 299 299 300 300 301 301 301 302 302 302 303 303 304 304 304 304 304 305 305
288 288 289 289 289 289 289 290 290 290 290 289 290 291 292 294 294 295 296 297 297 297 297 297 297 298 298 298 299 299 299 300 300 301 301 302 303 303 303 304 304 304
Wind_Speed
13 15 17 19 22 23 23 23 23 23 24 24 25 26 26 26 26 26 27 28 28 28 28 28 29 29 29 29 29 29 30 30 31 31 31 32 33 34 35 36 36 37
7 8 9 11 14 15 17 18 19 21 22 23 24 25 25 25 26 26 26 27 27 27 27 27 28 28 28 28 28 29 29 30 30 30 31 32 33 33 34 35 35 36
9 8 8 8 10 11 13 16 18 21 23 24 25 25 25 25 25 25 25 25 25 25 25 25 25 25 26 26 27 28 29 29 30 30 31 32 32 33 33 34 34 35
14 13 12 11 11 10 11 12 14 16 19 21 21 21 22 22 21 21 21 21 21 21 21 21 22 22 23 23 24 25 26 27 28 28 30 31 31 32 33 33 34 34
20 20 19 17 15 14 13 13 13 13 14 15 15 16 17 17 17 17 18 19 19 20 20 20 21 21 21 22 22 23 24 25 26 26 28 30 30 31 32 32 33 34
22 23 23 23 21 19 18 17 16 16 15 15 15 16 16 17 17 18 19 20 20 21 21 21 21 21 21 21 22 23 24 24 25 25 26 29 29 29 30 30 32 33
21 22 24 26 24 22 21 21 20 20 19 19 18 18 19 20 20 20 21 22 22 22 22 22 22 21 21 22 23 24 24 25 25 26 27 28 28 29 29 29 30 31
20 23 26 27 26 23 23 23 22 22 22 22 21 21 21 21 22 22 22 23 23 23 22 22 22 22 22 23 24 25 25 26 26 27 28 29 29 29 29 28 28 29
21 24 26 27 25 23 23 24 23 23 23 24 23 23 23 23 23 23 23 23 23 23 23 23 23 23 23 24 26 27 27 27 27 27 27 28 28 29 29 27 28 29
22 23 23 24 23 21 21 23 24 25 25 26 26 25 25 25 24 24 24 23 24 23 24 25 25 26 27 27 28 28 28 28 27 26 27 27 27 28 27 27 28 29
22 21 20 20 20 19 19 21 23 26 28 28 28 26 25 25 24 24 24 24 25 25 25 26 27 28 28 28 27 27 27 28 27 27 27 28 28 28 28 28 29 30
23 21 21 20 19 19 19 20 21 24 26 27 27 26 26 25 25 25 26 26 26 26 26 26 27 28 28 27 27 27 27 28 29 29 30 30 31 31 31 32 32 33
26 25 24 23 22 22 21 21 22 22 23 24 25 26 27 27 28 28 28 27 27 26 26 26 26 27 27 27 27 27 28 29 30 31 32 32 33 34 34 34 35 35
31 30 29 28 27 26 25 24 24 23 23 24 24 26 27 27 28 29 29 29 29 28 27 27 27 27 27 27 28 28 29 30 31 32 33 34 34 34 34 34 34 35
34 34 34 33 32 30 29 28 27 26 25 25 24 24 25 26 27 27 28 29 29 29 29 29 29 29 28 28 29 29 30 31 32 32 33 34 34 34 34 34 33 34
34 35 36 36 35 33 32 31 30 29 27 26 25 24 24 25 25 26 27 28 28 29 29 29 30 30 30 30 30 31 31 32 33 33 34 35 36 36 35 34 34 33
36 36 36 36 35 34 33 32 30 29 27 26 25 24 24 24 25 25 26 27 28 29 30 31 32 32 32 32 32 32 32 33 34 34 35 36 37 37 37 36 35 34
37 37 37 36 35 34 33 32 31 30 28 27 26 25 25 25 25 25 26 27 28 29 30 32 33 34 34 33 33 33 33 34 35 35 36 36 37 38 38 38 38 37
38 38 38 37 36 35 34 33 32 31 30 29 28 27 27 26 26 26 27 28 29 30 31 33 35 35 35 34 34 34 34 35 36 36 37 37 37 38 38 39 39 38
39 39 38 38 37 36 35 34 33 33 32 31 30 29 29 28 27 28 28 28 29 30 32 34 35 35 35 35 35 35 35 35 36 37 37 38 38 38 38 38 39 39
42 41 40 39 37 36 36 35 35 35 34 33 33 32 32 31 29 29 29 28 28 29 30 32 33 33 34 34 34 34 34 35 36 36 37 38 38 38 38 38 39 39
42 42 41 40 39 37 36 35 34 35 35 34 35 34 34 33 32 30 29 29 29 29 29 31 31 32 32 33 33 33 33 34 35 35 36 37 38 38 38 38 38 39
41 41 41 40 39 38 37 36 35 35 35 34 34 34 34 33 32 31 30 29 29 28 29 30 31 31 31 32 32 32 32 33 33 34 35 35 36 37 37 37 38 38
40 39 39 38 37 36 36 36 36 36 36 35 35 35 34 32 31 30 30 29 28 27 27 28 29 29 30 30 31 31 32 32 33 33 34 34 35 35 35 36 36 37
39 38 37 36 35 34 33 33 33 34 34 34 34 35 34 32 29 27 27 27 26 26 25 26 27 27 27 27 28 29 30 30 31 32 33 33 34 34 35 35 35 35
37 36 35 33 32 31 31 29 29 30 30 30 31 32 32 30 27 24 24 24 24 24 24 24 25 25 25 25 26 27 27 28 29 29 30 32 32 33 34 34 34 34
Wind_Direction
298 288 282 279 276 274 272 270 270 271 274 276 278 279 279 279 278 276 275 275 276 276 276 276 275 275 275 274 274 274 274 275 275 277 277 278 279 280 280 281 281 280
325 307 293 285 279 276 273 273 273 273 274 275 275 277 278 278 278 278 278 278 277 275 275 273 272 272 271 271 272 271 272 273 273 274 275 276 277 278 279 279 280 280
325 315 304 292 282 277 274 272 271 271 272 272 274 277 278 279 279 279 279 279 278 278 277 275 273 273 272 272 272 272 272 273 273 274 274 274 275 276 277 278 279 279
321 313 306 299 293 286 280 276 275 273 272 271 272 274 275 276 276 276 276 277 278 279 279 279 279 279 279 278 277 276 275 275 276 276 274 274 275 275 276 277 278 279
328 322 314 305 296 288 282 278 276 274 272 271 271 270 271 272 272 272 273 275 277 279 281 282 284 284 284 284 282 281 280 280 280 278 277 276 277 277 277 278 279 279
328 328 324 315 304 293 284 279 276 274 273 272 271 271 272 272 273 274 275 275 277 279 280 282 283 283 284 284 284 284 284 284 283 281 279 279 279 279 280 280 280 281
322 324 325 321 312 302 293 285 280 278 277 276 276 275 274 275 276 277 277 277 277 276 277 276 276 277 278 279 281 283 285 286 286 285 282 282 282 282 282 283 284 285
314 315 318 317 312 307 302 295 288 283 282 281 280 279 279 279 280 281 282 283 282 280 277 273 271 271 273 277 280 283 285 286 287 287 285 284 283 282 283 283 285 286
304 308 310 308 303 300 301 300 295 292 289 287 285 284 285 286 287 289 289 288 289 287 283 278 276 277 279 283 286 287 287 286 286 286 284 283 282 281 282 283 283 284
299 302 303 299 294 292 293 294 294 295 295 292 288 285 286 288 289 291 292 292 292 291 288 286 285 286 289 291 292 292 290 288 286 285 283 281 281 280 280 281 281 282
303 300 297 290 285 283 283 285 288 292 293 291 287 285 285 287 289 290 292 293 293 293 291 290 290 290 292 293 294 293 291 290 287 285 282 280 280 280 279 280 280 280
306 302 298 292 287 284 281 282 285 287 288 285 283 283 286 289 291 293 294 294 294 294 293 292 291 290 291 292 292 291 289 288 286 284 282 280 279 279 279 280 281 281
308 304 302 298 294 291 287 285 285 285 285 284 284 284 285 288 291 293 295 296 295 295 293 292 291 290 290 289 288 288 286 284 283 282 281 280 279 280 280 280 281 281
309 306 304 301 297 294 291 288 287 285 285 286 287 288 288 289 291 292 293 294 295 296 295 294 292 290 290 289 288 286 284 283 282 281 280 280 279 279 279 280 281 281
310 307 305 303 299 296 293 291 289 287 286 285 286 287 289 289 290 291 292 293 293 294 294 294 292 291 290 290 289 287 286 284 282 281 280 279 279 278 278 278 279 280
315 310 307 305 301 297 294 291 289 287 286 286 286 287 288 289 290 291 291 292 292 292 293 292 290 289 289 288 287 286 285 284 283 282 281 280 280 279 279 279 279 280
319 315 312 309 306 301 297 292 289 287 285 285 285 286 288 289 290 290 291 291 292 291 291 290 288 286 286 284 283 283 282 282 281 281 280 280 280 280 280 280 280 281
319 317 315 313 311 307 303 298 293 289 286 285 283 283 284 285 285 287 289 290 291 291 290 288 285 285 284 283 283 283 282 281 280 280 280 279 279 280 281 282 282 282
317 315 314 313 313 311 309 305 300 295 291 288 285 283 282 282 282 283 285 287 288 290 290 287 285 284 284 284 284 283 282 282 281 280 280 280 280 281 281 282 284 285
316 314 312 311 311 311 311 309 306 302 297 293 290 288 286 285 284 283 283 284 285 286 287 286 285 285 285 285 284 283 283 282 281 281 281 281 281 282 283 284 285 287
315 314 312 310 309 309 309 309 307 305 302 298 296 293 292 292 291 290 288 287 287 286 286 285 285 286 286 285 284 284 283 282 282 281 281 281 282 284 285 286 287 289
312 312 311 311 310 308 307 307 307 305 303 301 298 296 295 295 295 294 293 292 291 290 290 289 288 288 287 287 286 286 285 284 283 282 282 281 282 284 285 286 287 288
311 310 310 310 310 308 306 305 305 304 303 302 300 298 297 297 297 296 295 294 293 292 292 291 290 289 289 289 289 289 288 287 285 284 284 283 283 283 284 285 286 286
311 310 309 310 309 308 307 305 305 304 304 305 304 301 300 299 298 297 294 293 293 293 292 290 289 289 289 289 289 289 288 288 287 286 285 284 284 284 283 284 284 285
311 310 309 309 309 309 308 307 306 305 306 308 307 305 304 303 301 297 292 290 291 292 292 291 289 289 289 289 289 289 288 287 287 286 285 285 284 284 283 283 284 285
309 308 306 307 307 307 307 307 306 307 309 311 310 309 309 309 306 300 293 289 289 289 289 290 290 290 291 291 290 289 289 289 288 287 286 285 285 284 283 283 283 284